GEOSCAN 3 (RS92S3)

Last updated on Thu Oct 30 2025 00:03:11 GMT+0000 (Coordinated Universal Time)

1 64893U 25155T 25302.51526698 .00021651 00000+0 84972-3 0 9999 2 64893 97.4280 266.7258 0004132 297.7737 62.3082 15.25736950 45564
UTC large
Height (km)
Speed (km/s)
/
Latitude / Longitude
Inclination (degrees)
Orbital Period (minutes)
Azimuth
Elevation
Range (km)
Doppler Factor

Next 0 passes for location: London (51.5072 / 0.1276)

Sorry there are no passes over London.